Istanbul, Turkey

12:54 AM +03 on April 22, 2018 (GMT +0300)
Ataturk

Weather History for LTBA - September, 2011

Change the Weather History Date:

Sunday, September 11, 2011

  Actual Average Record
Temperature  
Mean Temperature 72 °F -  
Max Temperature 82 °F 71 °F 86 °F (2015)
Min Temperature 63 °F 59 °F 32 °F (1997)
Cooling Degree Days 8    
Growing Degree Days 22 (Base 50)    
Moisture  
Dew Point 50 °F    
Average Humidity 44    
Maximum Humidity 68    
Minimum Humidity 18    
Precipitation  
Precipitation 0.00 in - - ()
Sea Level Pressure  
Sea Level Pressure 30.08 in    
Wind  
Wind Speed 8 mph ()    
Max Wind Speed 16 mph    
Max Gust Speed -    
Visibility 6.0 miles    
Events      
Averages and records for this station are not official NWS values.
T = Trace of Precipitation, MM = Missing Value Source: Averaged Metar Reports

Daily Weather History Graph

Daily Weather History Graph

Search for Another Location

Airport or City:

Astronomy

Sep. 11, 2011 Rise Set
Actual Time 6:40 AM EEST 7:21 PM EEST
Civil Twilight 6:12 AM EEST 7:49 PM EEST
Nautical Twilight 5:40 AM EEST 8:22 PM EEST
Astronomical Twilight 5:06 AM EEST 8:55 PM EEST
Moon 6:34 PM EEST (9/11) 5:40 AM EEST (9/11)
Length of Visible Light 13h 36m
Length of Day
12h 40m
Waxing Gibbous, 99% of the Moon is Illuminated
Sep 11
Waxing Gibbous
Sep 12
Full
Sep 20
Last Quarter
Sep 27
New
Oct 4
First Quarter

Hourly Weather History & Observations

Time (EEST) Temp. Dew Point Humidity Pressure Visibility Wind Dir Wind Speed Gust Speed Precip Events Conditions
12:20 AM 71.6 °F 57.2 °F 60% 30.09 in - East 11.5 mph - N/A   Clear
12:50 AM 71.6 °F 57.2 °F 60% 30.09 in - ESE 10.4 mph - N/A   Clear
1:20 AM 69.8 °F 57.2 °F 64% 30.12 in - East 6.9 mph - N/A   Clear
1:50 AM 68.0 °F 57.2 °F 68% 30.09 in - ENE 6.9 mph - N/A   Clear
2:20 AM 68.0 °F 55.4 °F 64% 30.09 in - ENE 6.9 mph - N/A   Clear
2:50 AM 68.0 °F 55.4 °F 64% 30.09 in - NE 5.8 mph - N/A   Clear
3:00 AM 68 °F 55 °F 54% 30.11 in 6 mi NE 5.8 mph - -  
3:20 AM 68.0 °F 55.4 °F 64% 30.09 in - NE 6.9 mph - N/A   Clear
3:50 AM 68.0 °F 53.6 °F 60% 30.09 in - NE 6.9 mph - N/A   Clear
4:20 AM 68.0 °F 53.6 °F 60% 30.09 in - NE 5.8 mph - N/A   Clear
4:50 AM 68.0 °F 51.8 °F 56% 30.09 in - NE 4.6 mph - N/A   Clear
5:20 AM 68.0 °F 51.8 °F 56% 30.09 in - NE 3.5 mph - N/A   Clear
5:50 AM 68.0 °F 50.0 °F 52% 30.09 in - NE 4.6 mph - N/A   Clear
6:20 AM 66.2 °F 51.8 °F 60% 30.09 in - North 3.5 mph - N/A   Clear
6:50 AM 64.4 °F 53.6 °F 68% 30.09 in - North 5.8 mph - N/A   Clear
7:20 AM 68.0 °F 51.8 °F 56% 30.09 in - NNE 4.6 mph - N/A   Clear
7:50 AM 69.8 °F 50.0 °F 49% 30.09 in - NNE 5.8 mph - N/A   Clear
8:20 AM 73.4 °F 48.2 °F 41% 30.09 in - NE 6.9 mph - N/A   Clear
8:50 AM 73.4 °F 48.2 °F 41% 30.12 in - Variable 6.9 mph - N/A   Clear
9:00 AM 74 °F 46 °F 26% 30.12 in 6 mi ENE 6.9 mph - -  
9:20 AM 75.2 °F 46.4 °F 36% 30.12 in - NE 9.2 mph - N/A   Clear
9:50 AM 77.0 °F 44.6 °F 32% 30.12 in - ENE 12.7 mph - N/A   Clear
10:20 AM 77.0 °F 44.6 °F 32% 30.12 in - NE 12.7 mph - N/A   Clear
10:50 AM 78.8 °F 44.6 °F 30% 30.12 in - ENE 11.5 mph - N/A   Clear
11:20 AM 78.8 °F 44.6 °F 30% 30.09 in - ENE 11.5 mph - N/A   Clear
11:50 AM 78.8 °F 44.6 °F 30% 30.09 in - Variable 10.4 mph - N/A   Clear
12:20 PM 82.4 °F 46.4 °F 28% 30.09 in - ENE 11.5 mph - N/A   Clear
12:50 PM 82.4 °F 46.4 °F 28% 30.09 in - NE 10.4 mph - N/A   Clear
1:20 PM 80.6 °F 46.4 °F 30% 30.09 in - NNE 11.5 mph - N/A   Clear
1:50 PM 80.6 °F 48.2 °F 32% 30.06 in - NE 11.5 mph - N/A   Clear
2:20 PM 80.6 °F 46.4 °F 30% 30.06 in - NNE 11.5 mph - N/A   Clear
2:50 PM 82.4 °F 46.4 °F 28% 30.06 in - NNE 13.8 mph - N/A   Clear
3:00 PM 82 °F 46 °F 18% 30.06 in 6 mi NNE 13.8 mph - -  
3:20 PM 82.4 °F 46.4 °F 28% 30.06 in - NNE 13.8 mph - N/A   Clear
3:50 PM 82.4 °F 41.0 °F 23% 30.06 in - NE 12.7 mph - N/A   Clear
4:20 PM 80.6 °F 44.6 °F 28% 30.04 in - NNE 15.0 mph - N/A   Clear
4:50 PM 78.8 °F 46.4 °F 32% 30.04 in - NNE 16.1 mph - N/A   Clear
5:20 PM 80.6 °F 48.2 °F 32% 30.04 in - NNE 15.0 mph - N/A   Clear
5:50 PM 78.8 °F 46.4 °F 32% 30.04 in - NE 12.7 mph - N/A   Clear
6:20 PM 77.0 °F 46.4 °F 34% 30.04 in - NE 13.8 mph - N/A   Clear
6:50 PM 77.0 °F 48.2 °F 36% 30.04 in - NE 12.7 mph - N/A   Clear
7:20 PM 75.2 °F 50.0 °F 41% 30.04 in - NE 13.8 mph - N/A   Clear
7:50 PM 77.0 °F 51.8 °F 41% 30.04 in - ENE 11.5 mph - N/A   Clear
8:20 PM 73.4 °F 51.8 °F 47% 30.04 in - NE 12.7 mph - N/A   Clear
8:50 PM 73.4 °F 53.6 °F 50% 30.04 in - NE 13.8 mph - N/A   Clear
9:20 PM 73.4 °F 53.6 °F 50% 30.04 in - ENE 13.8 mph - N/A   Clear
9:50 PM 71.6 °F 55.4 °F 57% 30.04 in - ENE 11.5 mph - N/A   Clear
10:20 PM 71.6 °F 53.6 °F 53% 30.04 in - ENE 10.4 mph - N/A   Clear
10:50 PM 71.6 °F 53.6 °F 53% 30.04 in - ENE 8.1 mph - N/A   Clear
11:20 PM 71.6 °F 55.4 °F 57% 30.04 in - ENE 9.2 mph - N/A   Clear
11:50 PM 69.8 °F 55.4 °F 60% 30.04 in - NE 9.2 mph - N/A   Clear